Regional Weather Roundup
Issued by NWS

Home | Current Version | Previous Version | Graphics & Text | Print | Product List | Glossary On
Versions: 1 2 3 4 5 6 7 8 9 10 11 12 13 14 15 16 17 18 19 20 21 22 23 24 25 26 27 28 29 30 31 32 33 34 35 36 37 38 39 40 41 42 43 44 45 46 47 48 49 50
000
ASUS43 KFSD 280810
RWRSD

WEATHER ROUNDUP FOR SOUTH DAKOTA
NATIONAL WEATHER SERVICE SIOUX FALLS SD
300 AM CDT THU MAY 28 2015

NOTE: "FAIR" INDICATES FEW OR NO CLOUDS BELOW 12,000 FEET WITH NO
SIGNIFICANT WEATHER AND/OR OBSTRUCTIONS TO VISIBILITY.


SDZ001>005-009-010-012>017-280900-
NORTHWEST AND NORTH CENTRAL SOUTH DAKOTA

CITY           SKY/WX    TMP DP  RH WIND       PRES   REMARKS
BUFFALO          N/A     53  52  96 NW7       29.85F
FAITH            N/A     55  52  89 S12       29.88F
MOBRIDGE       PTCLDY    62  60  93 SE8       29.87F
$$

SDZ012>016-024>037-041>051-057-063-072>074-280900-
SOUTHWEST AND SOUTH CENTRAL SOUTH DAKOTA

CITY           SKY/WX    TMP DP  RH WIND       PRES   REMARKS
RAPID CTY ARPT MOCLDY    55  52  89 S6        29.93S
PIERRE         PTCLDY    60  56  86 S10       29.92S
CUSTER         CLOUDY    51  48  89 SW5       30.04F
ELLSWORTH AFB  CLOUDY    55  55 100 CALM      29.92S
PHILIP         CLEAR     57  54  89 SE6       29.91S
PINE RIDGE     MOCLDY    59  52  77 S17G28    29.96F
SPEARFISH      MOCLDY    50  50 100 CALM      29.97S
WINNER         FAIR      65  54  67 S12       29.96S
$$

SDZ004>011-016>023-039-040-280900-
NORTHEAST SOUTH DAKOTA

CITY           SKY/WX    TMP DP  RH WIND       PRES   REMARKS
ABERDEEN       CLOUDY    63  58  83 E7        29.94F
WATERTOWN      CLOUDY    65  53  65 SE7       29.99F
BROOKINGS      MOCLDY    63  50  63 S8        30.03S
SISSETON         N/A     64  56  75 CALM      29.95F
$$

SDZ017-020-022-023-036>040-048>070-280900-
SOUTHEAST SOUTH DAKOTA

CITY           SKY/WX    TMP DP  RH WIND       PRES   REMARKS
SIOUX FALLS    MOCLDY    66  50  56 S9        30.02F
HURON            N/A    N/A N/A N/A MISG      29.96S
CHAMBERLAIN    MOCLDY    61  54  78 SE6       29.96F
MITCHELL       MOCLDY    64  51  62 S8        29.98S
YANKTON        CLOUDY    66  50  55 S8        30.01S
$$

ABBREVIATIONS USED IN REMARKS
   TC - TEMPERATURE IN CELSIUS
  WCI - WIND CHILL INDEX
   HX - HEAT INDEX
  VSB - VISIBILITY




USA.gov is the U.S. government's official web portal to all federal, state and local government web resources and services.